DW3212 Weather Reports


time (UTC)temp
C
wind
direction
speed
KPH
gust
KPH
rain 1hr
cm
rain 24hr
cm
rain mn
cm
humidity
%
barometer
mb
20260509200056 5 0.0 0.0 0.13 1.70 1.70 96 1010.1
20260509194557 5 0.0 0.0 0.18 1.68 1.68 96 1010.1
20260509193059 5 0.0 0.0 0.23 1.63 1.63 96 1010.1
20260509191600 5 0.0 0.0 0.25 1.60 1.60 95 1010.3
20260509190100 5 0.0 0.0 0.30 1.57 1.57 96 1010.4
20260509184554 4 0.0 0.0 0.28 1.47 1.47 96 1010.6
20260509183056 4 0.0 0.0 0.23 1.40 1.40 95 1010.8
20260509181602 4 0.0 0.0 0.23 1.32 1.32 95 1010.8
20260509180059 4 0.0 0.0 0.23 1.27 1.27 95 1010.9
20260509174604 4 0.0 0.0 0.23 1.22 1.22 95 1010.9
20260509173112 4 0.0 0.0 0.28 1.17 1.17 95 1011.1
20260509171601 4 0.0 0.0 0.28 1.12 1.12 95 1011.2
20260509170055 4 0.0 0.0 0.25 1.04 1.04 95 1011.2
20260509164554 4 0.0 0.0 0.28 0.99 0.99 94 1011.2
20260509163105 4 0.0 0.0 0.25 0.89 0.89 94 1011.4
20260509161554 4 0.0 0.0 0.28 0.84 0.84 94 1011.6
20260509160059 3 0.0 0.0 0.33 0.79 0.79 94 1011.9
20260509154604 3 0.0 0.0 0.33 0.71 0.71 94 1012.1
20260509153057 3 0.0 0.0 0.30 0.64 0.64 94 1012.3
20260509151556 3 0.0 0.0 0.25 0.56 0.56 94 1012.3
20260509150055 3 0.0 0.0 0.18 0.46 0.46 93 1012.3
20260509144609 3 0.0 0.0 0.15 0.38 0.38 94 1012.4
20260509143056 3 0.0 0.0 0.15 0.33 0.33 93 1012.3
20260509141555 3 0.0 0.0 0.18 0.30 0.30 94 1012.1
20260509140107 3 0.0 0.0 0.20 0.28 0.28 93 1012.1
20260509134555 3 0.0 0.0 0.18 0.23 0.23 94 1012.0
20260509133102 3 0.0 0.0 0.15 0.18 0.18 93 1012.0
20260509131602 3 0.0 0.0 0.13 0.13 0.13 92 1012.2
20260509130105 3 0.0 0.0 0.08 0.08 0.08 91 1012.1
20260509124603 3 0.0 0.0 0.05 0.05 0.05 89 1012.1
20260509123054 3 0.0 0.0 0.03 0.03 0.03 87 1012.1
20260509121604 3 0.0 0.0 0.00 0.00 0.00 85 1012.2
20260509120056 3 0.0 0.0 0.00 0.00 0.00 83 1012.3
20260509114555 2 0.0 0.0 0.00 0.00 0.00 84 1012.5
20260509113101 1 0.0 0.0 0.00 0.00 0.00 83 1012.5
20260509111607 2 0.0 0.0 0.00 0.00 0.00 80 1012.5
20260509110056 1 0.0 0.0 0.00 0.00 0.00 81 1012.5
20260509104556 1 0.0 0.0 0.00 0.00 0.00 81 1012.5
20260509103100 1 0.0 0.0 0.00 0.00 0.00 80 1012.4
20260509101554 0 0.0 0.0 0.00 0.00 0.00 79 1012.4
20260509100054 0 0.0 0.0 0.00 0.00 0.00 81 1012.2
20260509094556 0 0.0 0.0 0.00 0.00 0.00 81 1012.2
20260509093055 0 0.0 0.0 0.00 0.00 0.00 82 1012.4
20260509091559 0 0.0 0.0 0.00 0.00 0.00 79 1012.3
20260509090108 1 0.0 0.0 0.00 0.00 0.00 73 1012.3
20260509084602 1 0.0 0.0 0.00 0.00 0.00 71 1012.2
20260509083100 0 0.0 0.0 0.00 0.00 0.00 68 1011.9
20260509081600 0 0.0 0.0 0.00 0.00 0.00 70 1011.9
20260509080100 0 0.0 0.0 0.00 0.00 0.00 71 1011.8
20260509074556 0 0.0 0.0 0.00 0.00 0.00 76 1011.8
20260509073056 1 0.0 0.0 0.00 0.00 0.00 76 1011.7
20260509071600 0 0.0 0.0 0.00 0.00 0.00 76 1011.6
20260509070057 1 0.0 0.0 0.00 0.00 0.00 77 1011.9
20260509064602 0 0.0 0.0 0.00 0.00 0.00 79 1011.9
20260509063111 0 0.0 0.0 0.00 0.00 0.00 82 1011.8
20260509061604 0 0.0 0.0 0.00 0.00 0.00 83 1012.0
20260509060100 0 0.0 0.0 0.00 0.00 0.00 83 1012.2
20260509054606 0 0.0 0.0 0.00 0.00 0.00 83 1012.3
20260509053133 0 0.0 0.0 0.00 0.00 0.00 82 1012.3
20260509051557 0 0.0 0.0 0.00 0.00 0.00 81 1012.3
20260509050057 1 0.0 0.0 0.00 0.00 0.00 79 1012.3
20260509044554 2 0.0 0.0 0.00 0.00 0.00 74 1012.2
20260509043107 2 0.0 0.0 0.00 0.00 0.00 71 1012.0
20260509041602 2 0.0 0.0 0.00 0.00 0.00 72 1011.9
20260509040109 2 0.0 0.0 0.00 0.00 0.00 71 1011.8
20260509034604 3 0.0 0.0 0.00 0.00 0.00 69 1011.7
20260509033054 3 0.0 0.0 0.00 0.00 0.00 70 1011.8
20260509031605 3 0.0 0.0 0.00 0.00 0.00 71 1011.8
20260509030056 3 0.0 0.0 0.00 0.00 0.00 70 1011.8
20260509024554 3 0.0 0.0 0.00 0.00 0.00 70 1011.6
20260509023057 3 0.0 0.0 0.00 0.00 0.00 71 1011.6
20260509021600 3 0.0 0.0 0.00 0.00 0.00 73 1011.5
20260509020056 2 0.0 0.0 0.00 0.00 0.00 76 1011.3
20260509014600 2 0.0 0.0 0.00 0.00 0.00 74 1011.1
20260509013103 3 0.0 0.0 0.00 0.00 0.00 73 1010.9
20260509011558 2 0.0 0.0 0.00 0.00 0.00 74 1010.9
20260509010058 3 0.0 0.0 0.00 0.00 0.00 70 1010.7
20260509004601 3 0.0 0.0 0.00 0.00 0.00 69 1010.3
20260509003101 4 0.0 0.0 0.00 0.00 0.00 68 1010.2
20260509001558 4 0.0 0.0 0.00 0.00 0.00 67 1010.1
20260509000059 5 0.0 0.0 0.00 0.00 0.00 66 1010.0
20260508234557 5 0.0 0.0 0.00 0.00 0.00 66 1009.9
20260508233106 5 0.0 0.0 0.00 0.00 0.00 64 1009.8
20260508231556 5 0.0 0.0 0.00 0.00 0.00 64 1009.6
20260508224555 5 0.0 0.0 0.00 0.00 0.00 66 1009.4
20260508223054 5 0.0 0.0 0.00 0.00 0.00 68 1009.4
20260508221555 5 0.0 0.0 0.00 0.00 0.00 66 1009.5
20260508220100 6 0.0 0.0 0.00 0.00 0.00 66 1009.4
20260508214559 6 0.0 0.0 0.00 0.00 0.00 68 1009.3
20260508213055 6 0.0 0.0 0.00 0.00 0.00 63 1009.2
20260508211556 6 0.0 0.0 0.00 0.00 0.00 67 1009.2
20260508204556 6 0.0 0.0 0.00 0.00 0.00 63 1009.0
20260508203102 7 0.0 0.0 0.00 0.00 0.00 53 1008.7
20260508201556 7 0.0 0.0 0.00 0.00 0.00 53 1008.4